Regional Weather Roundup
Issued by NWS

Home | Current Version | Previous Version | Text Only | Print | Product List | Glossary On
Versions: 1 2 3 4 5 6 7 8 9 10 11 12 13 14 15 16 17 18 19 20 21 22 23 24 25 26 27 28 29 30 31 32 33 34 35 36 37 38 39 40 41 42 43 44 45 46 47 48 49 50
000
ASUS43 KBIS 281520
RWRND

NORTH DAKOTA REGIONAL WEATHER ROUNDUP
NATIONAL WEATHER SERVICE BISMARCK ND
1000 AM CDT THU AUG 28 2014

NOTE: "FAIR" INDICATES FEW OR NO CLOUDS BELOW 12,000 FEET WITH NO
SIGNIFICANT WEATHER AND/OR OBSTRUCTIONS TO VISIBILITY.


NDZ001>003-009>011-017-281600-
NORTHWEST NORTH DAKOTA

CITY           SKY/WX    TMP DP  RH WIND       PRES   REMARKS
WILLISTON      SUNNY     67  60  78 S8        29.89F
MINOT          MOSUNNY   70  62  76 S8        29.88F
MINOT AFB      MOSUNNY   69  67  93 S8        29.87F
$$

NDZ018>021-031>035-040>046-281600-
SOUTHWEST NORTH DAKOTA

CITY           SKY/WX    TMP DP  RH WIND       PRES   REMARKS
BISMARCK       CLOUDY    65  64  97 CALM      29.95S FOG
DICKINSON      MOSUNNY   68  63  84 S7        29.93F
GARRISON         N/A     62  62 100 S6        29.92F
HETTINGER ARPT CLOUDY    62  60  93 CALM      29.97F
$$

NDZ004>008-012>016-024-026-027-054-281600-
NORTHEAST NORTH DAKOTA

CITY           SKY/WX    TMP DP  RH WIND       PRES   REMARKS
GRAND FORKS    CLOUDY    67  62  84 S13       29.95S
GRND FRKS AFB  PTSUNNY   68  67  96 S12       29.96S
DEVILS LAKE    CLOUDY    66  61  82 SW12      29.92F
$$

NDZ022-023-025-028>030-036>039-047>053-281600-
SOUTHEAST NORTH DAKOTA

CITY           SKY/WX    TMP DP  RH WIND       PRES   REMARKS
FARGO          PTSUNNY   68  61  78 S15       29.98S
JAMESTOWN      CLOUDY    67  64  90 S9        29.95F
$$




USA.gov is the U.S. government's official web portal to all federal, state and local government web resources and services.